Location: Mission Viejo Division
(33.5624°N, 117.5924°W)
Time: 06:18:52
(UTC+00:00)

Cosmos 1939 Rocket - Pass Details

Date: 22 May 2024
Orbit: 515 x 557 km, 97.4° (Epoch: 23 June)

Event Time Altitude Azimuth Distance (km) Brightness Sun altitude
Rises 12:01:42 0° 20° (NNE) 2,734 7.3 -8.8°
Reaches altitude 10° 12:03:55 10° 27° (NNE) 1,840 6.5 -8.4°
Maximum altitude 12:07:43 42° 99° (E) 805 4.1 -7.7°
Drops below altitude 10° 12:11:30 10° 170° (S) 1,835 5.3 -7.0°
Sets 12:13:42 0° 178° (S) 2,726 6.1 -6.6°
